This is the latest recevied weather packets stored in our database for station/object K7SKM. If no packets are shown the sender has not sent any weather packets the latest 10 day(s).
| Time | Temp. | Humidity | Pressure | Rain* | Wind** | Luminosity | Snow |
|---|---|---|---|---|---|---|---|
| 1777819141 | 13.89° C | 80% | 1019 hPa | 0 mm | - | 152 W/m² | - |
| 1777818838 | 13.89° C | 81% | 1018.7 hPa | 0 mm | - | 148 W/m² | - |
| 1777818534 | 13.33° C | 82% | 1018.8 hPa | 0 mm | - | 144 W/m² | - |
| 1777818232 | 12.78° C | 82% | 1018.9 hPa | 0 mm | - | 141 W/m² | - |
| 1777817927 | 12.78° C | 84% | 1018.8 hPa | 0 mm | - | 135 W/m² | - |
| 1777817625 | 12.22° C | 85% | 1018.7 hPa | 0 mm | - | 131 W/m² | - |
| 1777817321 | 12.22° C | 85% | 1018.7 hPa | 0 mm | - | 124 W/m² | - |
| 1777817019 | 11.67° C | 87% | 1018.6 hPa | 0 mm | - | 117 W/m² | - |
| 1777816714 | 11.11° C | 91% | 1018.5 hPa | 0 mm | - | 109 W/m² | - |
| 1777816412 | 10.56° C | 93% | 1018.9 hPa | 0 mm | - | 85 W/m² | - |
| 1777816110 | 10.56° C | 93% | 1018.5 hPa | 0 mm | - | 21 W/m² | - |
| 1777815807 | 10.56° C | 94% | 1018.7 hPa | 0 mm | - | 23 W/m² | - |
| 1777815505 | 10.56° C | 94% | 1018.7 hPa | 0 mm | - | 17 W/m² | - |
| 1777815202 | 10.56° C | 94% | 1018.7 hPa | 0 mm | - | 23 W/m² | - |
| 1777814898 | 10.56° C | 94% | 1018.8 hPa | 0 mm | - | 13 W/m² | - |
| 1777814595 | 10.56° C | 94% | 1018.6 hPa | 0 mm | - | 9 W/m² | - |
| 1777814292 | 10.56° C | 94% | 1018.8 hPa | 0 mm | - | 7 W/m² | - |
| 1777813988 | 10.56° C | 94% | 1018.6 hPa | 0 mm | - | 5 W/m² | - |
| 1777813686 | 10.56° C | 94% | 1018.6 hPa | 0 mm | - | 3 W/m² | - |
| 1777813383 | 10.56° C | 94% | 1018.7 hPa | 0 mm | - | 1 W/m² | - |
| 1777813081 | 10° C | 93% | 1018.6 hPa | 0 mm | - | 0 W/m² | - |
| 1777812779 | 10° C | 91% | 1018.8 hPa | 0 mm | - | 0 W/m² | - |
| 1777812474 | 10° C | 91% | 1018.7 hPa | 0 mm | - | 0 W/m² | - |
| 1777812172 | 10.56° C | 91% | 1018.6 hPa | 0 mm | - | 0 W/m² | - |
| 1777811870 | 10.56° C | 91% | 1018.8 hPa | 0 mm | - | 0 W/m² | - |
* Rain latest hour (hover to see other rain measurements)
** Current wind speed in m/s (hover to see current wind gust speed)